[Iaude] MPEC K67: 2017 BB233 [a=67.31,e=0.42,i=14.3,H=8.02]

mpec at cfa.harvard.edu mpec at cfa.harvard.edu
Thu May 23 12:57:41 EDT 2024


M.P.E.C. 2024-K67                                  Issued 2024 May 23, 16:55 UT

     The Minor Planet Electronic Circulars contain information on unusual
         minor planets, routine data on comets and natural satellites,
         and occasional editorial announcements.  They are published
    on behalf of Division F of the International Astronomical Union by the
          Minor Planet Center, Smithsonian Astrophysical Observatory,
                          Cambridge, MA 02138, U.S.A.
			  
             Prepared using the Tamkin Foundation Computer Network

                              MPC at CFA.HARVARD.EDU
            URL https://www.minorplanetcenter.net/    ISSN 1523-6714

                                   2017 BB233                                   


Additional Observations:
     K17BN3B 1C2015 03 22.44518909 23 43.85 +02 28 28.3                WEK067T09
     K17BN3B 1C2016 04 04.25751509 29 28.93 +01 46 16.8                WEK067T09

Observer details:
T09 Subaru Telescope, Maunakea.  Observer .  Measurer S. Deen.  8.3-m Subaru
    Telescope + CCD.

Orbital elements:
2017 BB233                                                                      
Epoch 2024 Mar. 31.0 TT = JDT 2460400.5                 Alexandersen            
M   7.83533              (2000.0)            P               Q                  
n   0.00178486     Peri.  231.46716     -0.73063244     -0.63642981             
a  67.3080435      Node   267.55324     +0.67772809     -0.63208087             
e   0.4201395      Incl.   14.32827     +0.08283041     -0.44207563             
P 552              H    8.02          G   0.15           U   6                  
Residuals in seconds of arc
150322 T09  0.0   0.0     170121 T09  0.1+  0.2+    170128 T09  0.2+  0.1+
160404 T09  0.0   0.0     170121 T09  0.1+  0.1+    170304 T09  0.1-  0.1+
161225 T09  0.1-  0.1-    170121 T09  0.1+  0.1-    170304 T09  0.1+  0.1-
161225 T09  0.2-  0.0     170121 T09  0.1+  0.1-    170304 T09  0.1+  0.1+
161225 T09  0.2-  0.0     170121 T09  0.2-  0.1+    170304 T09  0.0   0.0
161225 T09  0.1+  0.4-    170128 T09  0.1+  0.0     170304 T09  0.1-  0.1+
161225 T09  0.1+  0.1+    170128 T09  0.0   0.1+    170304 T09  0.0   0.3-
170121 T09  0.0   0.0     170128 T09  0.0   0.0     170304 T09  0.2-  0.1+

Ephemeris:
2017 BB233               a,e,i = 67.31, 0.42, 14                 q = 39.0293
Date    TT    R. A. (2000) Decl.     Delta      r    Elong.  Phase     V
2024 04 23    10 19 00.6 -04 23 23  39.2376 39.8097   124.1     1.2    24.2
...
2024 05 08    10 18 42.7 -04 16 57  39.4592 39.8150   110.0     1.4    24.2
...
2024 05 16    10 18 41.5 -04 14 08  39.5875 39.8178   102.5     1.4    24.2
...
2024 05 22    10 18 44.5 -04 12 22  39.6865 39.8199    96.8     1.4    24.2
2024 05 23    10 18 45.3 -04 12 06  39.7031 39.8202    95.9     1.4    24.2
2024 05 24    10 18 46.2 -04 11 50  39.7198 39.8206    95.0     1.5    24.2
...
2024 05 30    10 18 53.7 -04 10 30  39.8202 39.8227    89.4     1.5    24.2
...
2024 06 07    10 19 08.7 -04 09 13  39.9538 39.8255    82.0     1.4    24.2
...
2024 06 22    10 19 51.9 -04 08 34  40.1958 39.8307    68.3     1.4    24.2

M. P. C. Staff               (C) Copyright 2024 MPC           M.P.E.C. 2024-K67





More information about the Iaude mailing list